Location: Newark
(34.6283°N, 36.0776°E)
Time: 09:49:00
(UTC+00:00)

A-11 Canister half - Pass Details

Date: 24 September 2019
Orbit: 1527 x 1682 km, 47.3° (Epoch: 22 October)

Event Time Altitude Azimuth Distance (km) Brightness Sun altitude
Rises 02:59:02 0° 280° (W) 4,701 - -6.1°
Exits shadow 03:00:38 - 283° (WNW) 4,229 10.7 -5.8°
Reaches altitude 10° 03:02:23 10° 288° (WNW) 3,733 10.4 -5.4°
Maximum altitude 03:11:05 39° 355° (N) 2,220 9.9 -3.7°
Drops below altitude 10° 03:20:03 10° 62° (ENE) 3,844 12.3 -1.8°
Sets 03:23:33 0° 70° (ENE) 4,853 13.3 -1.1°
